Vichy, MO

12:49 PM CST on February 25, 2017 (GMT -0600)
Rolla National

Weather History for KVIH - March, 2014

Change the Weather History Date:

Saturday, March 1, 2014

  Actual Average Record
Temperature  
Mean Temperature 34 °F 40 °F  
Max Temperature 44 °F 51 °F 79 °F (2006)
Min Temperature 23 °F 30 °F 0 °F (1962)
Degree Days  
Heating Degree Days 31 25  
Month to date heating degree days 31 25  
Since 1 July heating degree days 4337 3815  
Cooling Degree Days 0 0  
Month to date cooling degree days 0 0  
Year to date cooling degree days 0 0  
Moisture  
Dew Point 25 °F    
Average Humidity 73    
Maximum Humidity 92    
Minimum Humidity 53    
Precipitation  
Precipitation T in 0.08 in 1.34 in (1948)
Month to date precipitation T 0.08  
Year to date precipitation 1.46 4.18  
Sea Level Pressure  
Sea Level Pressure 30.13 in    
Wind  
Wind Speed 9 mph (North)    
Max Wind Speed 17 mph    
Max Gust Speed 22 mph    
Visibility 8 miles    
Events Rain    
T = Trace of Precipitation, MM = Missing Value Source: NWS Daily Summary

Daily Weather History Graph

Daily Weather History Graph

Search for Another Location

Airport or City:

Trip Planner

Search our weather history database for the weather conditions in past years. The results will help you decide how hot, cold, wet, or windy it might be!

Date:

Astronomy

Mar. 01, 2014 Rise Set
Actual Time 6:38 AM CST 6:00 PM CST
Civil Twilight 6:12 AM CST 6:26 PM CST
Nautical Twilight 5:41 AM CST 6:57 PM CST
Astronomical Twilight 5:11 AM CST 7:28 PM CST
Moon 6:33 AM CST (3/1) 6:46 PM CST (3/1)
Length of Visible Light 12h 14m
Length of Day
11h 21m
New Moon, 0% of the Moon is Illuminated
Mar 1
New Moon
Mar 8
First Quarter
Mar 16
Full
Mar 23
Last Quarter
Mar 30
New

Hourly Weather History & Observations

Time (CST) Temp. Windchill Dew Point Humidity Pressure Visibility Wind Dir Wind Speed Gust Speed Precip Events Conditions
12:53 AM 39.0 °F 34.0 °F 28.9 °F 67% 30.02 in 10.0 mi SSW 6.9 mph - N/A   Overcast
1:45 AM 39.0 °F 35.7 °F 28.9 °F 67% 30.01 in 10.0 mi SSW 4.6 mph - N/A   Overcast
1:53 AM 39.0 °F 34.8 °F 28.9 °F 67% 30.01 in 10.0 mi South 5.8 mph - N/A   Overcast
2:53 AM 28.9 °F 22.8 °F 25.0 °F 85% 30.02 in 10.0 mi WSW 5.8 mph - N/A   Clear
3:53 AM 30.9 °F 25.2 °F 27.0 °F 85% 30.04 in 10.0 mi WSW 5.8 mph - N/A   Clear
4:53 AM 32.0 °F - 28.0 °F 85% 30.05 in 10.0 mi Calm Calm - N/A   Clear
5:53 AM 26.1 °F - 24.1 °F 92% 30.07 in 9.0 mi Calm Calm - N/A   Clear
6:53 AM 27.0 °F 23.0 °F 25.0 °F 92% 30.09 in 8.0 mi West 3.5 mph - N/A   Mostly Cloudy
7:20 AM 30.9 °F 27.5 °F 28.0 °F 89% 30.09 in 9.0 mi NW 3.5 mph - N/A   Overcast
7:53 AM 35.1 °F - 32.0 °F 89% 30.12 in 9.0 mi Calm Calm - N/A   Overcast
8:16 AM 37.9 °F 35.5 °F 33.1 °F 83% 30.11 in 10.0 mi NW 3.5 mph - N/A   Overcast
8:53 AM 39.0 °F 34.0 °F 32.0 °F 76% 30.14 in 10.0 mi NNW 6.9 mph - N/A   Overcast
9:53 AM 36.0 °F 28.5 °F 30.0 °F 79% 30.16 in 10.0 mi NNW 10.4 mph - N/A   Overcast
10:53 AM 37.9 °F 32.1 °F 28.0 °F 68% 30.17 in 10.0 mi North 8.1 mph - N/A   Overcast
11:53 AM 42.1 °F 36.6 °F 28.0 °F 58% 30.14 in 10.0 mi North 9.2 mph - N/A   Overcast
12:53 PM 41.0 °F 35.8 °F 28.0 °F 60% 30.14 in 10.0 mi North 8.1 mph - N/A   Overcast
1:53 PM 42.1 °F 36.6 °F 27.0 °F 55% 30.12 in 10.0 mi North 9.2 mph - N/A   Overcast
2:53 PM 41.0 °F 33.9 °F 26.1 °F 55% 30.13 in 10.0 mi North 12.7 mph - N/A   Overcast
3:53 PM 37.0 °F 28.1 °F 24.1 °F 59% 30.13 in 9.0 mi NNE 15.0 mph - N/A   Overcast
4:53 PM 33.1 °F 23.9 °F 23.0 °F 66% 30.14 in 9.0 mi North 12.7 mph - N/A   Overcast
5:53 PM 28.9 °F 18.6 °F 21.0 °F 72% 30.16 in 9.0 mi North 12.7 mph - N/A   Overcast
6:53 PM 28.0 °F 17.5 °F 21.0 °F 75% 30.17 in 10.0 mi NNE 12.7 mph - N/A   Overcast
7:53 PM 26.1 °F 15.0 °F 19.9 °F 78% 30.17 in 9.0 mi NNE 12.7 mph - N/A   Overcast
8:21 PM 26.1 °F 14.0 °F 19.9 °F 78% 30.16 in 8.0 mi NNE 15.0 mph - N/A   Overcast
8:53 PM 25.0 °F 12.2 °F 21.0 °F 85% 30.19 in 7.0 mi NNE 16.1 mph - N/A   Overcast
9:23 PM 24.1 °F 12.5 °F 21.0 °F 88% 30.16 in 6.0 mi NNE 12.7 mph - N/A   Overcast
9:53 PM 24.1 °F 12.0 °F 21.0 °F 88% 30.20 in 6.0 mi NNE 13.8 mph - N/A   Overcast
10:53 PM 24.1 °F 12.5 °F 21.0 °F 88% 30.24 in 4.0 mi North 12.7 mph - N/A   Overcast
11:23 PM 23.0 °F 11.1 °F 21.0 °F 92% 30.19 in 3.0 mi NNE 12.7 mph - 0.00 in Rain Light Freezing Rain
11:31 PM 24.1 °F 13.1 °F 21.9 °F 91% 30.20 in 2.5 mi North 11.5 mph - 0.00 in   Overcast
11:40 PM 23.0 °F 9.6 °F 21.0 °F 92% 30.19 in 2.5 mi North 16.1 mph - 0.00 in Rain Light Freezing Rain
11:53 PM 23.0 °F 11.7 °F 21.0 °F 92% 30.23 in 3.0 mi NNE 11.5 mph - 0.00 in Rain Light Freezing Rain